Bangor, ME

5:36 PM EST on December 08, 2016 (GMT -0500)
Bangor International

Weather History for KBGR - March, 2013

Change the Weather History Date:

Friday, March 22, 2013

  Actual Average Record
Temperature  
Mean Temperature 23 °F 32 °F  
Max Temperature 38 °F 42 °F 84 °F (2012)
Min Temperature 7 °F 23 °F 7 °F (1940)
Degree Days  
Heating Degree Days 42 33  
Month to date heating degree days 743 801  
Since 1 July heating degree days 6120 6447  
Cooling Degree Days 0 0  
Month to date cooling degree days 0 0  
Year to date cooling degree days 0 0  
Moisture  
Dew Point 13 °F    
Average Humidity 66    
Maximum Humidity 96    
Minimum Humidity 35    
Precipitation  
Precipitation 0.00 in 0.12 in 0.93 in (1994)
Month to date precipitation 1.85 2.30  
Year to date precipitation 4.76 7.71  
Snow  
Snow 0.00 in 0.40 in 6.50 in (1998)
Month to date snowfall 13.7 9.0  
Since 1 July snowfall 73.2 59.7  
Snow Depth 7.00 in    
Sea Level Pressure  
Sea Level Pressure 29.58 in    
Wind  
Wind Speed 6 mph (NW)    
Max Wind Speed 20 mph    
Max Gust Speed 26 mph    
Visibility 10 miles    
Events      
T = Trace of Precipitation, MM = Missing Value Source: NWS Daily Summary

Daily Weather History Graph

Daily Weather History Graph

Search for Another Location

Airport or City:

Trip Planner

Search our weather history database for the weather conditions in past years. The results will help you decide how hot, cold, wet, or windy it might be!

Date:

Astronomy

Mar. 22, 2013 Rise Set
Actual Time 6:34 AM EDT 6:50 PM EDT
Civil Twilight 6:05 AM EDT 7:19 PM EDT
Nautical Twilight 5:30 AM EDT 7:54 PM EDT
Astronomical Twilight 4:55 AM EDT 8:29 PM EDT
Moon 2:04 PM EDT (3/22) 3:43 AM EDT (3/22)
Length of Visible Light 13h 14m
Length of Day
12h 16m
Waxing Gibbous, 77% of the Moon is Illuminated
Mar 22
Waxing Gibbous
Mar 27
Full
Apr 3
Last Quarter
Apr 10
New
Apr 18
First Quarter

Hourly Weather History & Observations

Time (EDT) Temp. Windchill Dew Point Humidity Pressure Visibility Wind Dir Wind Speed Gust Speed Precip Events Conditions
12:53 AM 14.0 °F 6.5 °F 12.2 °F 93% 29.59 in 10.0 mi NW 4.6 mph - N/A   Partly Cloudy
1:53 AM 21.2 °F 14.9 °F 14.0 °F 74% 29.59 in 10.0 mi North 4.6 mph - N/A   Partly Cloudy
2:53 AM 17.6 °F 10.7 °F 10.4 °F 73% 29.58 in 10.0 mi North 4.6 mph - N/A   Scattered Clouds
3:53 AM 14.0 °F - 10.0 °F 84% 29.59 in 10.0 mi Calm Calm - N/A   Scattered Clouds
4:53 AM 12.0 °F - 10.0 °F 92% 29.60 in 10.0 mi Calm Calm - N/A   Scattered Clouds
5:53 AM 9.0 °F - 7.0 °F 92% 29.60 in 10.0 mi Calm Calm - N/A   Scattered Clouds
6:53 AM 10.9 °F 4.7 °F 9.0 °F 92% 29.61 in 10.0 mi WSW 3.5 mph - N/A   Scattered Clouds
7:53 AM 12.9 °F - 10.9 °F 92% 29.61 in 10.0 mi Calm Calm - N/A   Scattered Clouds
8:53 AM 21.9 °F - 15.1 °F 75% 29.61 in 10.0 mi Calm Calm - N/A   Scattered Clouds
9:53 AM 28.9 °F 20.4 °F 14.0 °F 54% 29.60 in 10.0 mi NNW 9.2 mph - N/A   Partly Cloudy
10:53 AM 34.0 °F 26.0 °F 12.9 °F 42% 29.59 in 10.0 mi North 10.4 mph - N/A   Partly Cloudy
11:53 AM 35.1 °F 27.9 °F 12.9 °F 40% 29.58 in 10.0 mi NNW 9.2 mph - N/A   Partly Cloudy
12:53 PM 35.1 °F 27.4 °F 12.9 °F 40% 29.57 in 10.0 mi NW 10.4 mph 17.3 mph N/A   Scattered Clouds
1:53 PM 37.0 °F 33.3 °F 12.9 °F 37% 29.55 in 10.0 mi Variable 4.6 mph - N/A   Mostly Cloudy
2:53 PM 37.0 °F 28.9 °F 12.0 °F 36% 29.54 in 10.0 mi WNW 12.7 mph 21.9 mph N/A   Mostly Cloudy
3:53 PM 35.1 °F 24.8 °F 17.1 °F 48% 29.55 in 10.0 mi NNW 17.3 mph 26.5 mph N/A   Mostly Cloudy
4:53 PM 35.1 °F 25.5 °F 17.1 °F 48% 29.55 in 10.0 mi NW 15.0 mph 20.7 mph N/A   Mostly Cloudy
5:53 PM 33.1 °F 22.2 °F 17.1 °F 52% 29.56 in 10.0 mi NNW 17.3 mph 23.0 mph N/A   Scattered Clouds
6:53 PM 32.0 °F 25.6 °F 15.1 °F 50% 29.57 in 10.0 mi West 6.9 mph - N/A   Scattered Clouds
7:53 PM 28.9 °F 23.9 °F 15.1 °F 56% 29.58 in 10.0 mi West 4.6 mph - N/A   Partly Cloudy
8:53 PM 28.9 °F 22.8 °F 16.0 °F 58% 29.60 in 10.0 mi WNW 5.8 mph - N/A   Clear
9:53 PM 28.0 °F 21.7 °F 17.1 °F 63% 29.60 in 10.0 mi West 5.8 mph - N/A   Clear
10:53 PM 27.0 °F 20.5 °F 17.1 °F 66% 29.59 in 10.0 mi West 5.8 mph - N/A   Partly Cloudy
11:53 PM 27.0 °F 18.7 °F 16.0 °F 63% 29.57 in 10.0 mi West 8.1 mph - N/A   Scattered Clouds